Beaumont / Port Arthur, TX

6:41 PM CDT on April 21, 2018 (GMT -0500)
Beaumont Municipal

Weather History for KBMT - January, 2014

Change the Weather History Date:

Friday, January 10, 2014

  Actual Average (KBPT) Record (KBPT)
Temperature  
Mean Temperature 66 °F -  
Max Temperature 68 °F 59 °F 79 °F (1950)
Min Temperature 65 °F 40 °F 16 °F (1962)
Cooling Degree Days 2    
Growing Degree Days 16 (Base 50)    
Moisture  
Dew Point 63 °F    
Average Humidity 87    
Maximum Humidity 100    
Minimum Humidity 74    
Precipitation  
Precipitation 0.00 in - - ()
Sea Level Pressure  
Sea Level Pressure 29.95 in    
Wind  
Wind Speed 7 mph (SSE)    
Max Wind Speed 15 mph    
Max Gust Speed 20 mph    
Visibility 5 miles    
Events Fog , Rain , Thunderstorm    
Averages and records for this station are not official NWS values.
T = Trace of Precipitation, MM = Missing Value Source: NWS Daily Summary

Daily Weather History Graph

Daily Weather History Graph

Search for Another Location

Airport or City:

Astronomy

Jan. 10, 2014 Rise Set
Actual Time 7:14 AM CST 5:35 PM CST
Civil Twilight 6:47 AM CST 6:01 PM CST
Nautical Twilight 6:18 AM CST 6:30 PM CST
Astronomical Twilight 5:49 AM CST 6:59 PM CST
Moon 1:34 PM CST (1/10) 2:28 AM CST (1/10)
Length of Visible Light 11h 13m
Length of Day
10h 21m
Waxing Gibbous, 75% of the Moon is Illuminated
Jan 10
Waxing Gibbous
Jan 15
Full
Jan 23
Last Quarter
Jan 30
New
Feb 6
First Quarter

Hourly Weather History & Observations

Time (CST) Temp. Dew Point Humidity Pressure Visibility Wind Dir Wind Speed Gust Speed Precip Events Conditions
12:15 AM - - N/A% 30.12 in 1.0 mi ESE 8.1 mph - N/A   Overcast
12:35 AM - - N/A% 30.11 in 1.0 mi ESE 5.8 mph - N/A   Overcast
12:55 AM - - N/A% 30.10 in 1.0 mi ESE 8.1 mph - N/A   Overcast
1:15 AM - - N/A% 30.10 in 2.0 mi ESE 5.8 mph - N/A   Overcast
1:35 AM - - N/A% 30.09 in 2.0 mi ESE 4.6 mph - N/A   Overcast
1:55 AM - - N/A% 30.08 in 1.5 mi ESE 3.5 mph - N/A   Overcast
2:15 AM - - N/A% 30.07 in 1.5 mi ESE 4.6 mph - N/A   Overcast
2:35 AM - - N/A% 30.07 in 1.2 mi ESE 4.6 mph - N/A   Overcast
2:55 AM - - N/A% 30.07 in 2.0 mi SE 5.8 mph - N/A   Overcast
3:15 AM - - N/A% 30.06 in 1.2 mi ESE 5.8 mph - N/A   Overcast
3:35 AM - - N/A% 30.06 in 0.8 mi East 4.6 mph - N/A   Overcast
3:55 AM - - N/A% 30.05 in 0.8 mi ESE 6.9 mph - N/A   Overcast
4:15 AM - - N/A% 30.05 in 0.8 mi East 6.9 mph - N/A   Overcast
4:35 AM - - N/A% 30.04 in 0.8 mi ESE 6.9 mph - N/A   Overcast
4:55 AM - - N/A% 30.04 in 0.5 mi ESE 6.9 mph - N/A Fog Fog
5:15 AM - - N/A% 30.03 in 0.5 mi ESE 6.9 mph - N/A Fog Fog
5:35 AM - - N/A% 30.03 in 0.8 mi ESE 5.8 mph - N/A   Overcast
5:55 AM - - N/A% 30.02 in 0.5 mi ESE 4.6 mph - N/A Fog Fog
6:15 AM - - N/A% 30.02 in 1.2 mi ESE 5.8 mph - N/A   Overcast
6:35 AM - - N/A% 30.02 in 1.0 mi ESE 4.6 mph - N/A   Overcast
6:55 AM - - N/A% 30.02 in 1.2 mi ESE 5.8 mph - N/A   Overcast
7:15 AM - - N/A% 30.02 in 1.2 mi ESE 6.9 mph - N/A   Overcast
7:35 AM - - N/A% 30.02 in 1.5 mi ESE 8.1 mph - N/A   Overcast
7:55 AM - - N/A% 30.02 in 2.0 mi SE 5.8 mph - N/A   Overcast
8:15 AM - - N/A% 30.02 in 2.5 mi SE 5.8 mph - N/A   Overcast
8:35 AM - - N/A% 30.03 in 2.5 mi SE 6.9 mph - N/A   Overcast
8:55 AM - - N/A% 30.03 in 3.0 mi SE 6.9 mph - N/A   Overcast
9:15 AM - - N/A% 30.04 in 3.0 mi SE 5.8 mph - N/A   Overcast
9:35 AM - - N/A% 30.04 in 2.5 mi SE 6.9 mph - N/A   Overcast
9:55 AM - - N/A% 30.04 in 2.5 mi SE 5.8 mph - N/A   Overcast
10:15 AM - - N/A% 30.03 in 2.5 mi ESE 6.9 mph - N/A   Overcast
10:35 AM - - N/A% 30.02 in 2.0 mi ESE 5.8 mph - N/A   Overcast
10:55 AM - - N/A% 30.01 in 2.0 mi SE 8.1 mph - N/A   Overcast
11:15 AM - - N/A% 29.99 in 3.0 mi SE 8.1 mph - N/A   Overcast
11:35 AM - - N/A% 29.97 in 5.0 mi SE 9.2 mph - N/A   Haze
11:55 AM - - N/A% 29.96 in 7.0 mi SSE 6.9 mph - N/A   Overcast
12:15 PM - - N/A% 29.94 in 7.0 mi SSE 11.5 mph - N/A   Overcast
12:35 PM - - N/A% 29.92 in 10.0 mi SSE 5.8 mph - N/A   Overcast
12:55 PM 65.8 °F 65.8 °F 100% 29.91 in 10.0 mi SSE 5.8 mph - N/A   Overcast
1:15 PM 66.4 °F 65.7 °F 98% 29.89 in 10.0 mi South 4.6 mph - N/A   Overcast
1:35 PM 66.6 °F 64.4 °F 93% 29.88 in 10.0 mi SSE 5.8 mph - N/A   Overcast
1:55 PM 66.7 °F 62.6 °F 86% 29.88 in 10.0 mi South 8.1 mph - N/A   Overcast
2:15 PM 67.3 °F 61.2 °F 81% 29.87 in 10.0 mi South 8.1 mph - N/A   Overcast
2:35 PM 68.2 °F 60.8 °F 77% 29.86 in 10.0 mi SSE 9.2 mph - N/A   Overcast
2:55 PM 68.9 °F 60.4 °F 74% 29.86 in 10.0 mi South 10.4 mph 16.1 mph N/A   Overcast
3:15 PM 67.8 °F 61.7 °F 81% 29.86 in 10.0 mi South 9.2 mph 18.4 mph N/A   Overcast
3:35 PM 68.0 °F 63.0 °F 84% 29.85 in 10.0 mi South 8.1 mph 17.3 mph N/A   Overcast
3:55 PM 68.5 °F 63.5 °F 84% 29.85 in 10.0 mi South 13.8 mph 17.3 mph N/A   Overcast
4:15 PM 68.4 °F 63.9 °F 85% 29.85 in 10.0 mi SSE 11.5 mph 17.3 mph N/A   Overcast
4:35 PM 67.6 °F 67.1 °F 98% 29.85 in 10.0 mi South 12.7 mph 18.4 mph N/A   Overcast
4:55 PM - - N/A% 29.84 in 10.0 mi South 10.4 mph 17.3 mph N/A Rain Light Rain
5:15 PM - - N/A% 29.84 in 4.0 mi South 11.5 mph 18.4 mph N/A Rain Heavy Rain
5:35 PM - - N/A% 29.84 in 4.0 mi South 9.2 mph 17.3 mph N/A   Heavy Drizzle
5:55 PM - - N/A% 29.84 in 3.0 mi South 9.2 mph - N/A Rain Heavy Rain
6:15 PM - - N/A% 29.84 in 3.0 mi South 11.5 mph 17.3 mph N/A Rain Heavy Rain
6:35 PM - - N/A% 29.84 in 7.0 mi South 11.5 mph 16.1 mph N/A   Heavy Drizzle
6:55 PM - - N/A% 29.84 in 7.0 mi South 10.4 mph - N/A Rain , Thunderstorm Heavy Thunderstorms and Rain
7:15 PM - - N/A% 29.84 in 4.0 mi South 12.7 mph 17.3 mph N/A Rain , Thunderstorm Thunderstorms and Rain
7:35 PM - - N/A% 29.84 in 10.0 mi SSW 12.7 mph 18.4 mph N/A Thunderstorm Overcast
7:55 PM - - N/A% 29.84 in 10.0 mi SSW 15.0 mph 19.6 mph N/A Thunderstorm Overcast
8:15 PM - - N/A% 29.84 in 10.0 mi South 11.5 mph 18.4 mph N/A   Overcast
8:35 PM - - N/A% 29.84 in 10.0 mi SSW 12.7 mph 16.1 mph N/A Thunderstorm Overcast
8:55 PM - - N/A% 29.85 in 10.0 mi SSW 8.1 mph - N/A   Overcast
9:15 PM - - N/A% 29.85 in 10.0 mi SSW 10.4 mph - N/A   Overcast
9:35 PM - - N/A% 29.85 in 10.0 mi SSW 8.1 mph - N/A   Overcast
9:55 PM - - N/A% 29.86 in 10.0 mi SW 12.7 mph 18.4 mph N/A   Overcast
10:15 PM - - N/A% 29.86 in 10.0 mi SW 10.4 mph 17.3 mph N/A   Overcast
10:35 PM - - N/A% 29.86 in 5.0 mi SW 9.2 mph 16.1 mph N/A   Haze
10:55 PM - - N/A% 29.86 in 5.0 mi SW 12.7 mph 17.3 mph N/A   Haze
11:15 PM - - N/A% 29.86 in 4.0 mi SW 10.4 mph 16.1 mph N/A   Haze
11:35 PM - - N/A% 29.87 in 4.0 mi SW 8.1 mph - N/A Thunderstorm Haze
11:55 PM - - N/A% 29.87 in 4.0 mi SW 8.1 mph - N/A   Haze